{"data":{"norad_id":65435,"intl_designator":"2025-194B","name":"STARLINK-34978","alt_names":[],"object_type":"PAYLOAD","status":"ACTIVE","operator":null,"country":"US","launch_date":"2025-09-03","launch_site_code":"AFWTR","launch_vehicle":null,"mission":null,"orbit_class":"UNKNOWN","rcs_meters":null,"size_class":null,"mass_kg":null,"dimensions":null,"purposes":["comms"],"wikipedia_slug":null,"has_3d_model":false,"image_url":null,"decayed_at":null,"tle_current":{"epoch":"2026-05-25T03:14:20.436864Z","epoch_age_seconds":66895,"freshness":"FRESH","line1":"1 65435U 25194B   26145.13495876  .00002295  00000+0  16300-3 0  9995","line2":"2 65435  97.4489 359.4111 0001798  95.6149 264.5283 15.05658452 41151","mean_motion":15.05658452,"eccentricity":0.0001798,"inclination_deg":97.4489,"raan_deg":359.4111,"arg_perigee_deg":95.6149,"mean_anomaly_deg":264.5283,"bstar":0.000163,"rev_number":4115,"period_min":95.639220042714,"perigee_km":548.23964201165,"apogee_km":550.73081496501,"semimajor_km":6927.6222284883,"source":"CELESTRAK","updated_at":"2026-05-25T13:38:20.805777Z"}}}